TimeEDT,TemperatureF,Dew PointF,Humidity,Sea Level PressureIn,VisibilityMPH,Wind Direction,Wind SpeedMPH,Gust SpeedMPH,PrecipitationIn,Events,Conditions,WindDirDegrees,DateUTC
12:18 AM,60.8,57.2,88,30.03,9.0,NNE,6.9,-,N/A,,Overcast,20,2012-10-27 04:18:00
12:54 AM,61.0,57.9,90,30.01,8.0,NE,5.8,-,N/A,,Overcast,40,2012-10-27 04:54:00
1:54 AM,60.1,59.0,96,29.98,6.0,NNE,9.2,-,N/A,,Overcast,20,2012-10-27 05:54:00
2:12 AM,60.8,59.0,94,29.99,7.0,NNE,8.1,-,N/A,,Overcast,30,2012-10-27 06:12:00
2:54 AM,60.1,59.0,96,29.96,6.0,NNE,8.1,-,N/A,,Overcast,20,2012-10-27 06:54:00
3:54 AM,59.0,59.0,100,29.93,3.0,North,8.1,-,0.03,Rain,Light Rain,10,2012-10-27 07:54:00
4:23 AM,60.8,59.0,94,29.94,7.0,NNE,9.2,-,0.00,,Overcast,20,2012-10-27 08:23:00
4:54 AM,60.1,59.0,96,29.92,8.0,NNE,9.2,-,0.00,,Overcast,20,2012-10-27 08:54:00
5:54 AM,60.1,59.0,96,29.91,10.0,NNE,12.7,18.4,N/A,,Overcast,30,2012-10-27 09:54:00
6:08 AM,60.8,57.2,88,29.93,10.0,NNE,9.2,-,N/A,,Overcast,30,2012-10-27 10:08:00
6:36 AM,59.0,57.2,94,29.93,10.0,NE,10.4,-,N/A,,Overcast,40,2012-10-27 10:36:00
6:54 AM,60.1,57.9,93,29.92,10.0,NE,11.5,-,N/A,,Overcast,40,2012-10-27 10:54:00
7:34 AM,59.0,57.2,94,29.94,10.0,NNE,10.4,-,N/A,,Overcast,30,2012-10-27 11:34:00
7:54 AM,59.0,57.9,96,29.93,10.0,NNE,9.2,-,N/A,,Overcast,20,2012-10-27 11:54:00
8:54 AM,59.0,57.0,93,29.95,10.0,NE,13.8,23.0,N/A,,Overcast,40,2012-10-27 12:54:00
9:42 AM,60.8,57.2,88,29.95,10.0,NNE,13.8,-,N/A,,Overcast,20,2012-10-27 13:42:00
9:54 AM,60.8,55.4,82,29.95,10.0,NNE,15.0,20.7,N/A,,Overcast,30,2012-10-27 13:54:00
10:27 AM,60.8,55.4,82,29.94,10.0,NNE,13.8,-,N/A,,Overcast,20,2012-10-27 14:27:00
10:54 AM,64.4,55.4,73,29.93,10.0,NNE,11.5,21.9,N/A,,Mostly Cloudy,20,2012-10-27 14:54:00
11:13 AM,64.4,55.4,73,29.94,10.0,NE,13.8,-,N/A,,Mostly Cloudy,40,2012-10-27 15:13:00
11:54 AM,63.0,54.0,72,29.92,10.0,NNE,15.0,-,N/A,,Overcast,20,2012-10-27 15:54:00
12:54 PM,66.0,54.0,65,29.88,10.0,NNE,13.8,20.7,N/A,,Mostly Cloudy,30,2012-10-27 16:54:00
1:40 PM,66.2,53.6,64,29.88,10.0,NNE,11.5,-,N/A,,Mostly Cloudy,20,2012-10-27 17:40:00
1:54 PM,68.0,53.1,59,29.85,10.0,NNE,16.1,-,N/A,,Mostly Cloudy,20,2012-10-27 17:54:00
2:54 PM,66.9,53.1,61,29.84,10.0,NE,16.1,-,N/A,,Scattered Clouds,40,2012-10-27 18:54:00
3:54 PM,66.9,53.1,61,29.83,10.0,NE,15.0,-,N/A,,Partly Cloudy,40,2012-10-27 19:54:00
4:54 PM,66.0,53.1,63,29.83,10.0,NE,11.5,-,N/A,,Clear,40,2012-10-27 20:54:00
5:54 PM,64.0,52.0,65,29.82,10.0,NE,15.0,21.9,N/A,,Clear,40,2012-10-27 21:54:00
6:54 PM,62.1,50.0,65,29.82,10.0,NE,10.4,-,N/A,,Clear,40,2012-10-27 22:54:00
7:54 PM,62.1,48.9,62,29.82,10.0,NNE,12.7,-,N/A,,Clear,30,2012-10-27 23:54:00
8:54 PM,61.0,48.9,64,29.82,10.0,NNE,10.4,-,N/A,,Clear,20,2012-10-28 00:54:00
9:54 PM,60.1,48.9,67,29.83,10.0,North,9.2,-,N/A,,Clear,10,2012-10-28 01:54:00
10:54 PM,59.0,48.9,69,29.84,10.0,NNE,6.9,-,N/A,,Clear,20,2012-10-28 02:54:00
11:54 PM,59.0,48.0,67,29.82,10.0,NNE,8.1,-,N/A,,Clear,20,2012-10-28 03:54:00